To NAV CANADA Home Page Login to a new session Search on AWWS site Feedback and Comments Disclaimer Vers la page française équivalente Tips FAQ What's new on the site To the Forecasts and Observations / NOTAM section To "File a Flight Plan" website Publications and other links Update of the User's profile FIC Telephone Numbers My Weather Data Folder Route Weather Data Regional Weather Data Local Weather Data To the Forecasts and Observations / NOTAM section
Request Generated 02/24/2017 at 03:38:42 UTC . Weather information available at that time is displayed.

METAR/TAF

DAWSON CITY/YT    

LWIS CYDA 240300Z AUTO 10003KT M19/M21 A3041=
LWIS CYDA 240200Z AUTO 00000KT M16/M19 A3041=
LWIS CYDA 240100Z AUTO VRB02KT M14/M19 A3043=

*** REMARK        : Forecast period has ended; this was the last TAF issued
*** REMARQUE : La période de prévision est échue; ceci était le dernier TAF qui a été émis
TAF CYDA 231738Z 2318/2324 VRB03KT P6SM SCT060 BKN120 TEMPO 2318/2324
P6SM -SN FEW030 BKN060
RMK NXT FCST WILL BE ISSUED AT 241645Z=
Your time UTC time
Weather data provided by Environment Canada and NAV CANADA